Weather History for EGNX - July, 2013

Change the Weather History Date:

Monday, July 1, 2013

  Actual Average Record
Temperature  
Mean Temperature 58 °F -  
Max Temperature 62 °F 68 °F 82 °F (2006)
Min Temperature 53 °F 52 °F 46 °F (2011)
Degree Days  
Heating Degree Days 8    
Growing Degree Days 8 (Base 50)    
Moisture  
Dew Point 48 °F    
Average Humidity 71    
Maximum Humidity 88    
Minimum Humidity 51    
Precipitation  
Precipitation 0.00 in - - ()
Sea Level Pressure  
Sea Level Pressure 30.00 in    
Wind  
Wind Speed 10 mph ()    
Max Wind Speed 16 mph    
Max Gust Speed -    
Visibility 6.2 miles    
Events Rain    
Averages and records for this station are not official NWS values.
T = Trace of Precipitation, MM = Missing Value Source: Averaged Metar Reports

Daily Weather History Graph

Daily Weather History Graph

Search for Another Location

Airport or City:

Trip Planner

Search our weather history database for the weather conditions in past years. The results will help you decide how hot, cold, wet, or windy it might be!

Date:

Astronomy

Jul. 01, 2013 Rise Set
Actual Time 4:44 AM BST 9:33 PM BST
Civil Twilight 3:54 AM BST 10:23 PM BST
Nautical Twilight 2:31 AM BST 11:46 PM BST
Astronomical Twilight Sun does not rise Sun does not rise
Moon 12:43 AM BST (7/1) 3:02 PM BST (7/1)
Length of Visible Light 18h 28m
Length of Day
16h 48m
Last Quarter, 37% of the Moon is Illuminated
Jul 1
Last Quarter
Jul 8
New
Jul 16
First Quarter
Jul 22
Full
Jul 29
Last Quarter

Hourly Weather History & Observations

Time (BST) Temp. Dew Point Humidity Pressure Visibility Wind Dir Wind Speed Gust Speed Precip Events Conditions
12:20 AM 59.0 °F 53.6 °F 82% 30.01 in 6.2 mi WSW 11.5 mph - N/A   Scattered Clouds
12:50 AM 57.2 °F 53.6 °F 88% 30.01 in 6.2 mi WSW 10.4 mph - N/A   Scattered Clouds
1:20 AM 57.2 °F 53.6 °F 88% 30.01 in 6.2 mi WSW 10.4 mph - N/A   Scattered Clouds
1:50 AM 59.0 °F 53.6 °F 82% 30.01 in 6.2 mi West 11.5 mph - N/A   Scattered Clouds
2:20 AM 57.2 °F 53.6 °F 88% 29.98 in 6.2 mi West 12.7 mph - N/A   Scattered Clouds
2:50 AM 57.2 °F 51.8 °F 82% 29.98 in 6.2 mi West 12.7 mph - N/A   Scattered Clouds
3:20 AM 57.2 °F 51.8 °F 82% 29.98 in 6.2 mi West 11.5 mph - N/A   Scattered Clouds
3:50 AM 55.4 °F 51.8 °F 88% 29.98 in 6.2 mi West 12.7 mph - N/A   Scattered Clouds
4:20 AM 55.4 °F 51.8 °F 88% 29.98 in 6.2 mi West 11.5 mph - N/A   Scattered Clouds
4:50 AM 55.4 °F 51.8 °F 88% 29.98 in 6.2 mi West 11.5 mph - N/A   Partly Cloudy
5:20 AM 53.6 °F 50.0 °F 88% 29.98 in 6.2 mi West 11.5 mph - N/A   Partly Cloudy
5:50 AM 53.6 °F 50.0 °F 88% 30.01 in 6.2 mi West 13.8 mph - N/A   Scattered Clouds
6:20 AM 53.6 °F 50.0 °F 88% 30.01 in 6.2 mi West 11.5 mph - N/A   Partly Cloudy
6:50 AM 53.6 °F 48.2 °F 82% 30.01 in 6.2 mi West 10.4 mph - N/A   Partly Cloudy
7:20 AM 55.4 °F 48.2 °F 77% 30.01 in 6.2 mi West 11.5 mph - N/A   Partly Cloudy
7:50 AM 55.4 °F 48.2 °F 77% 30.01 in 6.2 mi West 12.7 mph - N/A   Partly Cloudy
8:20 AM 57.2 °F 46.4 °F 67% 30.01 in 6.2 mi WNW 12.7 mph - N/A   Partly Cloudy
8:50 AM 57.2 °F 44.6 °F 63% 30.01 in 6.2 mi WNW 13.8 mph - N/A   Scattered Clouds
9:20 AM 57.2 °F 44.6 °F 63% 30.01 in 6.2 mi WNW 11.5 mph - N/A   Scattered Clouds
9:50 AM 59.0 °F 44.6 °F 59% 30.01 in 6.2 mi West 12.7 mph - N/A   Scattered Clouds
10:20 AM 59.0 °F 41.0 °F 51% 30.01 in 6.2 mi West 15.0 mph - N/A   Scattered Clouds
10:50 AM 59.0 °F 42.8 °F 55% 30.01 in 6.2 mi West 13.8 mph - N/A   Scattered Clouds
11:20 AM 59.0 °F 44.6 °F 59% 30.01 in 6.2 mi WSW 12.7 mph - N/A   Scattered Clouds
11:50 AM 59.0 °F 42.8 °F 55% 30.01 in 6.2 mi West 15.0 mph - N/A   Mostly Cloudy
12:20 PM 59.0 °F 44.6 °F 59% 30.01 in 6.2 mi West 15.0 mph - N/A   Mostly Cloudy
12:50 PM 59.0 °F 44.6 °F 59% 30.01 in 6.2 mi West 13.8 mph - N/A   Mostly Cloudy
1:20 PM 59.0 °F 44.6 °F 59% 30.01 in 6.2 mi West 15.0 mph - N/A   Mostly Cloudy
1:50 PM 59.0 °F 46.4 °F 63% 30.01 in 6.2 mi WSW 16.1 mph - N/A   Scattered Clouds
2:20 PM 60.8 °F 46.4 °F 59% 30.01 in 6.2 mi WSW 13.8 mph - N/A   Scattered Clouds
2:50 PM 62.6 °F 46.4 °F 55% 29.98 in 6.2 mi WSW 16.1 mph - N/A   Scattered Clouds
3:20 PM 60.8 °F 46.4 °F 59% 29.98 in 6.2 mi West 11.5 mph - N/A   Scattered Clouds
3:50 PM 59.0 °F 48.2 °F 67% 30.01 in 6.2 mi WNW 11.5 mph - N/A Rain Light Rain Showers
4:20 PM 57.2 °F 50.0 °F 77% 30.01 in 6.2 mi NNW 10.4 mph - N/A Rain Light Rain Showers
4:50 PM 60.8 °F 48.2 °F 63% 30.01 in 6.2 mi NW 8.1 mph - N/A   Scattered Clouds
5:20 PM 60.8 °F 48.2 °F 63% 30.01 in 6.2 mi NW 10.4 mph - N/A   Scattered Clouds
5:50 PM 59.0 °F 48.2 °F 67% 30.01 in 6.2 mi NW 10.4 mph - N/A   Scattered Clouds
6:20 PM 60.8 °F 46.4 °F 59% 29.98 in 6.2 mi WNW 11.5 mph - N/A   Scattered Clouds
6:50 PM 59.0 °F 44.6 °F 59% 29.98 in 6.2 mi WNW 10.4 mph - N/A   Scattered Clouds
7:20 PM 59.0 °F 44.6 °F 59% 29.98 in 6.2 mi WNW 9.2 mph - N/A   Scattered Clouds
7:50 PM 60.8 °F 46.4 °F 59% 29.98 in 6.2 mi WNW 8.1 mph - N/A   Partly Cloudy
8:20 PM 57.2 °F 46.4 °F 67% 29.98 in 6.2 mi WNW 6.9 mph - N/A   Partly Cloudy
8:50 PM 55.4 °F 46.4 °F 72% 29.98 in 6.2 mi WNW 5.8 mph - N/A   Partly Cloudy
9:20 PM 55.4 °F 46.4 °F 72% 30.01 in 6.2 mi WNW 4.6 mph - N/A   Partly Cloudy
9:50 PM 55.4 °F 46.4 °F 72% 30.01 in 6.2 mi WNW 5.8 mph - N/A   Partly Cloudy
10:20 PM 53.6 °F 46.4 °F 77% 29.98 in 6.2 mi WSW 5.8 mph - N/A   Partly Cloudy
10:50 PM 53.6 °F 48.2 °F 82% 29.98 in 6.2 mi SW 4.6 mph - N/A   Scattered Clouds
11:20 PM 53.6 °F 46.4 °F 77% 29.98 in 6.2 mi SW 4.6 mph - N/A   Partly Cloudy
11:50 PM 53.6 °F 46.4 °F 77% 29.98 in 6.2 mi SW 6.9 mph - N/A   Partly Cloudy